Location: Eschertshofen
(49.3064°N, 11.5756°E)
Time: 15:28:33
(UTC+00:00)

USA 238 - Pass Details

Date: 18 September 2020
Orbit: 1006 x 1206 km, 63.4° (Epoch: 25 October)

Event Time Altitude Azimuth Distance (km) Brightness Sun altitude
Rises 17:41:15 0° 314° (NW) 3,898 7.6 -4.3°
Reaches altitude 10° 17:44:02 10° 321° (NW) 2,970 6.8 -4.8°
Maximum altitude 17:50:46 43° 32° (NNE) 1,549 4.4 -5.9°
Drops below altitude 10° 17:57:47 10° 103° (ESE) 3,093 5.4 -7.0°
Enters shadow 17:58:17 - 104° (ESE) 3,260 5.5 -7.1°
